Preview of NWS' New Version of Forecast
This preview is not operational and should not be used for support decisions.

Regional Weather Roundup (RWR)

Issued by National Weather Service (NWS)

                            
000
ASCA42 TJSJ 220310
RWRPR 
PUERTO RICO/U.S. VIRGIN ISLANDS HOURLY WEATHER ROUNDUP
NATIONAL WEATHER SERVICE SAN JUAN PR
1100 PM AST TUE MAY 21 2019

PRZ001>002-007>008-010-220400-
PUERTO RICO
  
CITY           SKY/WX    TMP DP  RH WIND       PRES   REMARKS
SAN JUAN LMM   PTCLDY    81  73  78 E7        30.01R                  
CEIBA          MOCLDY    82  73  74 SE7       30.03R                  
$$

VIZ001>002-220400-
U.S. VIRGIN ISLANDS
  
CITY           SKY/WX    TMP DP  RH WIND       PRES   REMARKS
CHARLOTTE AMA  CLEAR     82  72  69 SE12      30.00R                  
CHRISTIANSTED  PTCLDY    77  72  83 E8        30.01R                  
$$

HOURLY WEATHER ROUNDUP FOR THE NEWS MEDIA
  
CITY           SKY/WX    TMP DP  RH WIND       PRES   REMARKS
ORLANDO        FAIR      77  68  73 SE8       30.01R                  
NEW YORK       FAIR      62  37  39 NW22G31   30.09R                  
NEWARK         FAIR      63  34  33 NW15G21   30.11R                  
CHICAGO        CLOUDY    54  41  61 E23G33    29.92F                  
HARTFORD       FAIR      59  35  40 NW7G17    29.98R                  
BOSTON         FAIR      61  33  35 NW13      29.98R                  
DALLAS         MOCLDY    75  56  51 S10       29.67R                  
PHILADELPHIA   FAIR      64  33  31 N15       30.12R                  
LOS ANGELES    PTCLDY    62  48  60 W20       29.75S                  
WASHINGTON DC  MOCLDY    63  42  46 N5        30.13R